Printer-friendly version

IAU Minor Planet Center

Minor Planet Center

MPEC 2000-F24: 2000 EV106

The following Minor Planet Electronic Circular may be linked-to from your own Web pages, but must not otherwise be redistributed electronically.


Read MPEC 2000-F23 Read MPEC 2000-F25


M.P.E.C. 2000-F24                                Issued 2000 Mar. 23, 23:19 UT

     The Minor Planet Electronic Circulars contain information on unusual
         minor planets and routine data on comets.  They are published
   on behalf of Commission 20 of the International Astronomical Union by the
          Minor Planet Center, Smithsonian Astrophysical Observatory,
                          Cambridge, MA 02138, U.S.A.

             Prepared using the Tamkin Foundation Computer Network

             BMARSDEN@CFA.HARVARD.EDU or GWILLIAMS@CFA.HARVARD.EDU
          URL http://cfa-www.harvard.edu/iau/mpc.html  ISSN 1523-6714

                                  2000 EV106

Observations:
     K00EA6V* C2000 03 11.32086 11 29 26.71 +03 44 42.6          20.2        704
     K00EA6V  C2000 03 11.33341 11 29 25.72 +03 45 22.2          20.4        704
     K00EA6V  C2000 03 11.35107 11 29 24.33 +03 46 17.2          20.0        704
     K00EA6V  C2000 03 11.36363 11 29 23.34 +03 46 56.9          20.3        704
     K00EA6V 1C2000 03 13.57561 11 26 46.07 +05 40 58.3                      413
     K00EA6V 1C2000 03 13.57764 11 26 45.92 +05 41 04.3                      413
     K00EA6V 1C2000 03 13.58019 11 26 45.70 +05 41 12.2                      413
     K00EA6V  C2000 03 15.26714 11 24 49.58 +07 04 36.8                      651
     K00EA6V  C2000 03 15.26911 11 24 49.41 +07 04 42.7          19.8 V      651
     K00EA6V  C2000 03 15.27124 11 24 49.38 +07 04 49.2                      651
     K00EA6V 1C2000 03 15.60798 11 24 26.31 +07 21 26.0          19.7 R      413
     K00EA6V 1C2000 03 15.60993 11 24 26.20 +07 21 31.3                      413
     K00EA6V 1C2000 03 15.61270 11 24 26.02 +07 21 39.3          19.6 R      413

Observer details:
413 Siding Spring.  Observer R. H. McNaught.  1.0-m f/8 reflector + CCD.
651 Grasslands Observatory, Tucson.  Observer J. E. McGaha.  0.62-m f/5.1
    reflector + CCD.
704 Lincoln Laboratory ETS, New Mexico.  Observers M. Blythe, F. Shelly,
    M. Bezpalko, M. Elowitz, R. Huber.  Measurers J. Stuart, H. Viggh,
    R. Sayer, J. B. Evans.  1.0-m f/2.15 reflector + CCD.

Orbital elements:
2000 EV106
Epoch 2000 Feb. 26.0 TT = JDT 2451600.5                 Williams
M  60.92893              (2000.0)            P               Q
n   0.48802396     Peri.  253.65894     +0.40570341     -0.91024075
a   1.5977492      Node   170.97393     +0.89944681     +0.41371400
e   0.3335119      Incl.   31.88324     -0.16248134     +0.01739254
P   2.02           H   19.7           G   0.15
From 13 observations 2000 Mar. 11-15.

Ephemeris:
2000 EV106               a,e,i = 1.60, 0.33, 32                  q = 1.0649
Date    TT    R. A. (2000) Decl.     Delta      r     Elong.  Phase     V
2000 03 17    11 22.91   +08 27.5    0.606    1.596   170.5     5.9    20.1
2000 03 22    11 17.86   +12 07.3    0.640    1.618   162.5    10.7    20.5
2000 03 27    11 13.66   +15 16.3    0.681    1.641   155.0    14.9    20.8
2000 04 01    11 10.44   +17 54.2    0.728    1.662   148.0    18.6    21.1
2000 04 06    11 08.25   +20 02.8    0.780    1.684   141.7    21.6    21.3
2000 04 11    11 07.11   +21 44.8    0.837    1.705   135.8    24.2    21.6
2000 04 16    11 06.99   +23 03.6    0.897    1.726   130.4    26.3    21.8

Gareth V. Williams           (C) Copyright 2000 MPC           M.P.E.C. 2000-F24

Read MPEC 2000-F23 Read MPEC 2000-F25


Our Web policy. Index to the CBAT/MPC/ICQ pages.


Valid HTML 4.01!